GW1992 Weather Reports


time (UTC)temp
C
wind
direction
speed
KPH
gust
KPH
rain 1hr
cm
rain 24hr
cm
rain mn
cm
humidity
%
barometer
mb
20260504151103 18 121 1.6 4.8 0.00 0.00 0.00 39 1016.5
20260504150600 18 339 4.8 4.8 0.00 0.00 0.00 40 1016.5
20260504141026 16 194 4.8 9.7 0.00 0.00 0.00 47 1016.6
20260504140523 16 321 4.8 8.0 0.00 0.00 0.00 47 1016.5
20260504130447 14 189 6.4 11.3 0.00 0.00 0.00 55 1017.0
20260504110334 9 67 0.0 1.6 0.00 0.00 0.00 60 1017.2
20260504100251 8 325 4.8 4.8 0.00 0.00 0.00 55 1017.2
20260504081645 7 69 0.0 0.0 0.00 0.00 0.00 53 1017.3
20260504081141 8 77 0.0 1.6 0.00 0.00 0.00 52 1017.3
20260504080638 7 56 1.6 1.6 0.00 0.00 0.00 53 1017.2
20260504080134 7 47 1.6 1.6 0.00 0.00 0.00 53 1017.3
20260504050450 10 110 1.6 3.2 0.00 0.00 0.00 45 1017.6
20260504045948 10 321 3.2 3.2 0.00 0.00 0.00 45 1017.4
20260504045443 10 76 0.0 1.6 0.00 0.00 0.00 46 1017.4
20260504044939 10 87 3.2 3.2 0.00 0.00 0.00 46 1017.3
20260504044437 10 87 0.0 1.6 0.00 0.00 0.00 46 1017.3
20260504043935 10 78 1.6 1.6 0.00 0.00 0.00 46 1017.4
20260504043431 10 65 1.6 3.2 0.00 0.00 0.00 46 1017.4
20260504042929 10 79 0.0 1.6 0.00 0.00 0.00 46 1017.2
20260504042425 10 31 0.0 3.2 0.00 0.00 0.00 46 1017.1
20260504041922 10 69 1.6 1.6 0.00 0.00 0.00 47 1017.1
20260504041418 9 68 0.0 1.6 0.00 0.00 0.00 47 1017.1
20260504040914 10 77 0.0 0.0 0.00 0.00 0.00 47 1017.1
20260504040412 10 72 0.0 1.6 0.00 0.00 0.00 47 1017.1
20260504035908 10 56 1.6 1.6 0.00 0.00 0.00 46 1017.0
20260504035406 10 62 1.6 3.2 0.00 0.00 0.00 46 1017.1
20260504034902 10 73 0.0 1.6 0.00 0.00 0.00 45 1016.9
20260504034359 10 78 0.0 1.6 0.00 0.00 0.00 45 1017.0
20260504033856 10 69 0.0 1.6 0.00 0.00 0.00 45 1016.9
20260504033354 10 14 0.0 1.6 0.00 0.00 0.00 45 1016.8
20260504032851 10 89 1.6 3.2 0.00 0.00 0.00 45 1016.9
20260504032348 9 54 1.6 1.6 0.00 0.00 0.00 47 1016.8
20260504031844 9 77 0.0 0.0 0.00 0.00 0.00 47 1016.9
20260504031342 10 79 0.0 0.0 0.00 0.00 0.00 46 1016.8
20260504030838 10 75 0.0 1.6 0.00 0.00 0.00 45 1016.7
20260504030335 10 73 0.0 0.0 0.00 0.00 0.00 45 1016.9
20260504025831 10 69 0.0 1.6 0.00 0.00 0.00 45 1016.7
20260504025328 10 78 0.0 0.0 0.00 0.00 0.00 45 1016.8
20260504024825 10 91 0.0 1.6 0.00 0.00 0.00 43 1016.8
20260504024322 10 71 1.6 1.6 0.00 0.00 0.00 43 1016.9
20260504023818 11 8 1.6 4.8 0.00 0.00 0.00 43 1017.1
20260504023315 11 49 1.6 3.2 0.00 0.00 0.00 43 1017.1
20260504022811 10 88 1.6 3.2 0.00 0.00 0.00 43 1017.0
20260504022308 10 71 0.0 3.2 0.00 0.00 0.00 44 1016.9
20260504021804 10 80 0.0 1.6 0.00 0.00 0.00 45 1017.0
20260504021302 10 74 0.0 1.6 0.00 0.00 0.00 46 1016.9
20260504020758 9 68 0.0 1.6 0.00 0.00 0.00 48 1017.0
20260504020255 8 74 0.0 0.0 0.00 0.00 0.00 49 1016.8
20260504015751 8 74 0.0 0.0 0.00 0.00 0.00 49 1016.9
20260504015248 8 73 0.0 0.0 0.00 0.00 0.00 48 1016.7
20260504014744 9 74 0.0 0.0 0.00 0.00 0.00 47 1016.8
20260504014240 9 75 0.0 0.0 0.00 0.00 0.00 46 1016.8
20260504013738 9 68 0.0 0.0 0.00 0.00 0.00 46 1016.6
20260504013235 9 74 0.0 0.0 0.00 0.00 0.00 46 1016.8
20260504012732 10 76 0.0 0.0 0.00 0.00 0.00 44 1016.8
20260504012230 10 76 0.0 0.0 0.00 0.00 0.00 43 1016.7
20260504011726 11 78 0.0 0.0 0.00 0.00 0.00 41 1016.6
20260504011223 11 85 0.0 1.6 0.00 0.00 0.00 40 1016.6
20260504010719 12 85 0.0 1.6 0.00 0.00 0.00 39 1016.5
20260504010215 11 76 1.6 3.2 0.00 0.00 0.00 39 1016.4
20260504005712 11 107 1.6 3.2 0.00 0.00 0.00 40 1016.4
20260504005209 11 76 0.0 1.6 0.00 0.00 0.00 40 1016.4
20260504004707 11 77 0.0 1.6 0.00 0.00 0.00 40 1016.3
20260504004204 11 54 0.0 0.0 0.00 0.00 0.00 40 1016.1
20260504003700 11 72 0.0 0.0 0.00 0.00 0.00 40 1016.2
20260504003157 12 71 0.0 0.0 0.00 0.00 0.00 39 1016.1
20260504002653 12 74 0.0 1.6 0.00 0.00 0.00 38 1016.0
20260504002151 12 75 0.0 0.0 0.00 0.00 0.00 37 1015.9
20260504001649 13 71 0.0 0.0 0.00 0.00 0.00 36 1015.9
20260504001144 13 77 0.0 1.6 0.00 0.00 0.00 35 1015.9
20260504000642 13 65 0.0 3.2 0.00 0.00 0.00 35 1015.7
20260504000139 13 59 1.6 1.6 0.00 0.00 0.00 34 1015.8
20260503235637 13 56 1.6 3.2 0.00 0.00 0.00 34 1015.8
20260503235134 14 81 1.6 3.2 0.00 0.00 0.00 33 1015.8
20260503234632 14 148 3.2 8.0 0.00 0.00 0.00 32 1015.6
20260503234130 14 99 1.6 8.0 0.00 0.00 0.00 32 1015.7
20260503233626 14 68 3.2 8.0 0.00 0.00 0.00 33 1015.6
20260503233122 15 36 1.6 9.7 0.00 0.00 0.00 32 1015.6
20260503232619 15 224 9.7 11.3 0.00 0.00 0.00 31 1015.4
20260503232116 15 271 6.4 8.0 0.00 0.00 0.00 31 1015.5
20260503231615 15 307 4.8 8.0 0.00 0.00 0.00 31 1015.4
20260503231111 15 61 1.6 3.2 0.00 0.00 0.00 30 1015.5
20260503230608 15 340 11.3 12.9 0.00 0.00 0.00 29 1015.3
20260503230105 15 323 3.2 9.7 0.00 0.00 0.00 30 1015.4
20260503225602 16 69 4.8 12.9 0.00 0.00 0.00 30 1015.4
20260503225056 16 61 3.2 8.0 0.00 0.00 0.00 29 1015.3
20260503224549 16 272 3.2 4.8 0.00 0.00 0.00 29 1015.3
20260503224047 16 336 9.7 11.3 0.00 0.00 0.00 28 1015.5
20260503223544 16 71 3.2 9.7 0.00 0.00 0.00 29 1015.3
20260503223039 16 302 9.7 11.3 0.00 0.00 0.00 29 1015.5
20260503222538 16 359 6.4 11.3 0.00 0.00 0.00 28 1015.4
20260503222036 16 306 8.0 11.3 0.00 0.00 0.00 28 1015.5
20260503221534 16 260 6.4 17.7 0.00 0.00 0.00 28 1015.5
20260503221031 16 319 4.8 14.5 0.00 0.00 0.00 28 1015.3
20260503220527 16 337 8.0 16.1 0.00 0.00 0.00 28 1015.4
20260503220024 16 9 8.0 12.9 0.00 0.00 0.00 27 1015.4
20260503215521 16 153 6.4 14.5 0.00 0.00 0.00 26 1015.2
20260503215018 16 359 8.0 12.9 0.00 0.00 0.00 27 1015.3
20260503214516 16 13 8.0 17.7 0.00 0.00 0.00 27 1015.3
20260503214012 16 210 4.8 16.1 0.00 0.00 0.00 27 1015.3
20260503213511 16 62 1.6 12.9 0.00 0.00 0.00 27 1015.2
20260503213007 16 119 8.0 17.7 0.00 0.00 0.00 26 1015.4
20260503212505 16 62 4.8 11.3 0.00 0.00 0.00 26 1015.1
20260503212002 16 339 6.4 11.3 0.00 0.00 0.00 26 1015.2
20260503211459 16 74 4.8 11.3 0.00 0.00 0.00 27 1015.1
20260503210954 16 96 6.4 17.7 0.00 0.00 0.00 27 1015.2
20260503210451 16 303 4.8 14.5 0.00 0.00 0.00 26 1015.1
20260503205946 16 18 9.7 12.9 0.00 0.00 0.00 27 1015.2
20260503205443 16 65 4.8 14.5 0.00 0.00 0.00 28 1015.1
20260503204939 16 351 8.0 17.7 0.00 0.00 0.00 27 1015.3
20260503204437 16 53 14.5 29.0 0.00 0.00 0.00 26 1015.1
20260503203933 16 305 9.7 16.1 0.00 0.00 0.00 27 1015.4
20260503203431 16 47 4.8 9.7 0.00 0.00 0.00 27 1015.3
20260503202927 16 46 8.0 14.5 0.00 0.00 0.00 28 1015.4
20260503202426 16 9 8.0 14.5 0.00 0.00 0.00 27 1015.4
20260503201924 15 358 9.7 24.1 0.00 0.00 0.00 29 1015.5
20260503201421 15 5 3.2 17.7 0.00 0.00 0.00 28 1015.6
20260503200918 16 10 4.8 14.5 0.00 0.00 0.00 31 1015.5
20260503200414 15 107 4.8 25.7 0.00 0.00 0.00 28 1015.6
20260503195911 15 72 3.2 14.5 0.00 0.00 0.00 30 1015.7
20260503195409 15 320 8.0 25.7 0.00 0.00 0.00 29 1015.7
20260503194905 15 60 6.4 16.1 0.00 0.00 0.00 30 1015.8
20260503194402 15 193 11.3 16.1 0.00 0.00 0.00 30 1015.8
20260503193858 15 334 12.9 22.5 0.00 0.00 0.00 28 1015.9
20260503193353 15 29 9.7 16.1 0.00 0.00 0.00 30 1015.9
20260503192849 15 255 11.3 24.1 0.00 0.00 0.00 29 1016.1
20260503192345 15 316 6.4 20.9 0.00 0.00 0.00 30 1015.9
20260503191842 15 335 12.9 17.7 0.00 0.00 0.00 29 1016.0
20260503191339 14 352 6.4 16.1 0.00 0.00 0.00 30 1015.9
20260503190835 15 274 14.5 22.5 0.00 0.00 0.00 30 1016.1
20260503190333 15 255 11.3 24.1 0.00 0.00 0.00 30 1016.2
20260503185829 14 95 8.0 12.9 0.00 0.00 0.00 30 1016.1
20260503185325 15 33 4.8 12.9 0.00 0.00 0.00 29 1016.1
20260503184820 14 236 6.4 12.9 0.00 0.00 0.00 32 1016.2
20260503184316 15 272 8.0 22.5 0.00 0.00 0.00 29 1016.3
20260503183812 14 337 8.0 16.1 0.00 0.00 0.00 32 1016.2
20260503183310 14 60 6.4 20.9 0.00 0.00 0.00 31 1016.4
20260503182807 14 270 8.0 17.7 0.00 0.00 0.00 30 1016.3
20260503182306 13 7 8.0 22.5 0.00 0.00 0.00 30 1016.4
20260503181803 14 348 9.7 25.7 0.00 0.00 0.00 31 1016.2
20260503181300 15 320 4.8 12.9 0.00 0.00 0.00 30 1016.4
20260503180756 15 268 8.0 16.1 0.00 0.00 0.00 31 1016.3
20260503180254 15 344 11.3 16.1 0.00 0.00 0.00 32 1016.3
20260503175750 13 242 9.7 17.7 0.00 0.00 0.00 30 1016.3
20260503175248 14 214 6.4 12.9 0.00 0.00 0.00 33 1016.1
20260503174744 13 341 4.8 16.1 0.00 0.00 0.00 32 1016.4
20260503174242 14 305 8.0 12.9 0.00 0.00 0.00 31 1016.4
20260503173742 14 71 8.0 12.9 0.00 0.00 0.00 31 1016.5
20260503173238 13 356 11.3 17.7 0.00 0.00 0.00 31 1016.5
20260503172735 13 261 11.3 16.1 0.00 0.00 0.00 33 1016.6
20260503172232 13 8 9.7 16.1 0.00 0.00 0.00 31 1016.5
20260503171729 13 200 8.0 14.5 0.00 0.00 0.00 30 1016.6
20260503171226 13 291 3.2 14.5 0.00 0.00 0.00 33 1016.6
20260503170723 12 347 12.9 20.9 0.00 0.00 0.00 31 1016.7
20260503170220 13 0 9.7 12.9 0.00 0.00 0.00 32 1016.6
20260503160136 10 55 3.2 11.3 0.00 0.00 0.00 41 1017.3